Regional Weather Roundup
Issued by NWS Charleston, SC

Current Version | Previous Version | Text Only | Print | Product List | Glossary Off
Versions: 1 2 3 4 5 6 7 8 9 10 11 12 13 14 15 16 17 18 19 20 21 22 23 24 25 26 27 28 29 30 31 32 33 34 35 36 37 38 39 40 41 42 43 44 45 46 47 48 49 50

000
ASUS42 KCHS 010113
RWRCHS

REGIONAL WEATHER ROUNDUP
NATIONAL WEATHER SERVICE CHARLESTON SC
900 PM EDT SAT APR 30 2016

NOTE: "FAIR" INDICATES FEW OR NO CLOUDS BELOW 12,000 FEET WITH NO
SIGNIFICANT WEATHER AND/OR OBSTRUCTIONS TO VISIBILITY.

NOT ALL STATIONS ARE QUALITY CONTROLLED. USE DATA WITH CAUTION...
ESPECIALLY DEWPOINT OBSERVATIONS.

SCZ027-030-031-034>040-042>050-010200-
...SOUTHEAST SOUTH CAROLINA...

CITY           SKY/WX    TMP DP  RH WIND       PRES   REMARKS
N CHARLESTON   CLOUDY    73  68  84 E14       30.06R
WATERFRONT PRK   N/A     73  71  93 E15       30.03R
MOUNT PLEASANT CLOUDY    72  70  94 E6        30.08R
JOHNS ISLAND   MOCLDY    73  72  94 E10       30.07R
PINOPOLIS        N/A     73  68  83 E8        29.96R
MONCKS CORNER  CLOUDY    70  63  78 E8        30.07R
SUMMERVILLE    FAIR      75  70  83 CALM      30.06R
BEAUFORT MCAS  PTCLDY    75  71  87 E9        30.03S
BEAUFORT ARPT  FAIR      73  70  88 E7        30.02F
HILTON HEAD IS PTCLDY    73  72  94 E5        30.04S
WALTERBORO     PTCLDY    73  72  94 SE10      30.03S
ALLENDALE      FAIR      75  66  73 SE9       30.01S

...SOUTHERN MIDLANDS AND PEE DEE...

CITY           SKY/WX    TMP DP  RH WIND       PRES   REMARKS
GEORGETOWN     CLOUDY    68  64  88 E13G18    30.10R
KINGSTREE      CLOUDY    68  63  83 E12G17    30.07R
ORANGEBURG     CLOUDY    75  62  64 SE8       30.02R
BARNWELL       FAIR      79  66  65 SE9       30.01R
AIKEN          FAIR      73  55  53 SE6       30.03S
MANNING        NOT AVBL
COLUMBIA       MOCLDY    79  61  53 SE12      30.00R
SUMTER         MOCLDY    74  66  78 SE10      30.01R
FLORENCE       CLOUDY    71  64  78 SE9       30.07R
MYRTLE BEACH   MOCLDY    66  57  72 E17G24    30.12R
N MYRTLE BEACH CLOUDY    67  60  78 E16G23    30.11R

$$

GAZ063-065-086>088-099>101-113>116-118-119-134>141-150-010200-
...SOUTHEAST GEORGIA...

CITY           SKY/WX    TMP DP  RH WIND       PRES   REMARKS
SAVANNAH ARPT  PTCLDY    75  69  81 E12       30.01S
HUNTER AAF     CLOUDY    75  73  91 E10       29.99S
FORT STEWART   CLOUDY    74  69  85 SE1       29.98R
STATESBORO     MOCLDY    79  72  78 SE5       29.99R
SYLVANIA       MOCLDY    76  70  80 SE6       30.01R
CLAXTON        FAIR      76  70  81 E3        29.99S

...CSRA...CENTRAL AND FAR SOUTHEAST GEORGIA...

CITY           SKY/WX    TMP DP  RH WIND       PRES   REMARKS
THOMSON        CLOUDY    81  62  52 SE3       30.01R
AUGUSTA-BUSH   CLOUDY    77  61  57 SE9       29.97R
AUGUSTA-DANIEL CLOUDY    79  60  52 SE9       29.99R
SWAINSBORO     FAIR      79  66  65 SE13      29.99R
VIDALIA        CLOUDY    77  66  69 SE8       29.98R
EASTMAN        FAIR      72  72 100 S9        30.01R
HAZLEHURST     FAIR      80  65  61 S7        29.98R
ALMA           MOCLDY    72  70  93 CALM      30.00R
WAYCROSS       LGT RAIN  77  67  71 W7        30.01R
JESUP          FAIR      79  73  83 SE3       30.00R
BAXLEY         FAIR      79  68  69 SE8       29.99R
BRUNSWICK      CLOUDY    79  73  83 SE5       30.01R
SAINT SIMONS   PTCLDY    74  73  97 SE5       30.00R

$$

SCZ027-028-034-036>038-045-046-048>050-GAZ119-141-010200-
...LAKE AND SUPPLEMENTAL COASTAL OBSERVATIONS...

STATION/POSITION TIME  TEMP    WIND        PRES    WAVE   SWELL
                       AIR SEA DIR/SP/G            HT/PER HT/PER/DIR
                 (UTC) (F)     (DEG/KT/KT) (MB)    (FT/S) (FT/S/D)
WINYAH BAY       2345   69      70/ 14     1018.0
LAKE MURRAY      0000   80     150/  8/ 10 1014.9R
ACE BASIN NERRS  2345   76     100/  3     1017.0
FORT PULASKI     0000   75 74              1016.9
SAPELO ISLAND    0000   76      90/  2     1016.0R

$$

ANZ835-935-AMZ111-154-330-350-352-354-370-450-454-472-010200-
...C-MAN AND BUOY OBSERVATIONS...

STATION/POSITION TIME  TEMP    WIND        PRES    WAVE   SWELL
                       AIR SEA DIR/SP/G            HT/PER HT/PER/DIR
                 (UTC) (F)     (DEG/KT/KT) (MB)    (FT/S) (FT/S/D)
BUOY 41004       0050   75 73   90/ 14/ 16 1017.5R   3/ 5   2/ 8
BUOY 41008       NOT AVBL
FOLLY BEACH CMAN 0100   72      70/ 11/ 12 1018.3R
CAPERS NEARSHORE 0008   72 72   70/ 14/ 17 1017.5R
FRIPP NEARSHORE  0008   74 74   90/ 10/ 12 1016.2R


STATION/POSITION TIME  TEMP    WIND        PRES    WAVE   SWELL
                       AIR SEA DIR/SP/G            HT/PER HT/PER/DIR
                 (UTC) (F)     (DEG/KT/KT) (MB)    (FT/S) (FT/S/D)
5E ST. MARYS GA  0021      74                N/A     2/10
FRYING PAN BUOY  0000   69 70   60/ 17/ 21 1019.0R
BUOY 41025       0050   62 73   30/ 16/ 17 1021.6R   6/10   3/ 60/10
CAPE LOOKOUT NC  0100   62      60/ 14/ 15 1021.2R
BUOY 41002       0050   71      60/ 16/ 17 1019.2R   5/ 8   3/ 40/ 8
BUOY 41010       0020   77 77  120/  6/  8 1016.4R
ST AUGUSTINE FL  0100   74 75  150/ 11/ 12 1016.4R


$$




USA.gov is the U.S. government's official web portal to all federal, state and local government web resources and services.